Location: De Lemmer
(52.8462°N, 5.7091°E)
Time: 11:41:37
(UTC+00:00)

Cosmos 2034 Rocket - Pass Details

Date: 18 September 2020
Orbit: 957 x 1002 km, 82.9° (Epoch: 30 October)

Event Time Altitude Azimuth Distance (km) Brightness Sun altitude
Rises 18:55:24 0° 167° (SSE) 3,715 6.7 -11.4°
Reaches altitude 10° 18:58:00 10° 162° (SSE) 2,768 6.0 -11.7°
Maximum altitude 19:04:03 48° 90° (E) 1,282 4.3 -12.6°
Drops below altitude 10° 19:10:07 10° 19° (NNE) 2,770 6.4 -13.5°
Sets 19:12:43 0° 14° (NNE) 3,718 7.1 -13.8°
